FW7313 Weather Reports


Display with metric or nautical units.
time (UTC)temp
F
wind
direction
speed
MPH
gust
MPH
rain 1hr
in
rain 24hr
in
rain mn
in
humidity
%
barometer
mb
20260504173930 80 217 3.0 13.0 0.00 0.00 0.00 46 1013.4
20260504173426 81 280 4.0 10.0 0.00 0.00 0.00 43 1013.5
20260504172924 80 287 2.0 7.0 0.00 0.00 0.00 46 1013.6
20260504172420 81 286 3.0 14.0 0.00 0.00 0.00 44 1013.4
20260504171916 80 152 0.0 10.0 0.00 0.00 0.00 44 1013.5
20260504171414 81 170 1.0 8.0 0.00 0.00 0.00 45 1013.6
20260504170911 80 179 3.0 11.0 0.00 0.00 0.00 45 1013.8
20260504170407 79 96 0.0 11.0 0.00 0.00 0.00 47 1013.8
20260504160326 79 228 1.0 8.0 0.00 0.00 0.00 46 1014.6
20260504150750 77 17 8.0 17.0 0.00 0.00 0.00 48 1014.3
20260504150247 76 258 5.0 7.0 0.00 0.00 0.00 50 1014.5
20260504141217 75 143 1.0 7.0 0.00 0.00 0.00 54 1014.4
20260504140714 75 196 0.0 3.0 0.00 0.00 0.00 54 1014.3
20260504140209 75 196 0.0 1.0 0.00 0.00 0.00 55 1014.1
20260504130637 66 136 0.0 0.0 0.00 0.00 0.00 65 1014.3
20260504130134 66 166 0.0 0.0 0.00 0.00 0.00 66 1014.3
20260504110525 57 184 0.0 0.0 0.00 0.00 0.00 80 1013.9
20260504100442 58 188 0.0 0.0 0.00 0.00 0.00 81 1014.0
20260504081835 60 152 0.0 0.0 0.00 0.00 0.00 72 1015.1
20260504081332 60 151 0.0 0.0 0.00 0.00 0.00 72 1014.5
20260504080827 60 151 0.0 0.0 0.00 0.00 0.00 72 1015.1
20260504080325 60 151 0.0 0.0 0.00 0.00 0.00 70 1015.1
20260504070252 63 167 0.0 0.0 0.00 0.00 0.00 64 1016.0
20260504060213 63 134 0.0 0.0 0.00 0.00 0.00 62 1016.4
20260504050640 62 137 0.0 0.0 0.00 0.00 0.00 63 1016.9
20260504050137 62 164 0.0 0.0 0.00 0.00 0.00 64 1016.7
20260504045635 62 184 0.0 0.0 0.00 0.00 0.00 64 1016.9
20260504045134 62 155 0.0 0.0 0.00 0.00 0.00 64 1016.8
20260504044633 62 187 0.0 0.0 0.00 0.00 0.00 64 1016.9
20260504044129 62 171 0.0 0.0 0.00 0.00 0.00 64 1017.1
20260504043626 62 169 0.0 0.0 0.00 0.00 0.00 64 1017.1
20260504043123 62 160 0.0 0.0 0.00 0.00 0.00 64 1017.0
20260504042621 62 161 0.0 0.0 0.00 0.00 0.00 64 1017.1
20260504042117 62 161 0.0 0.0 0.00 0.00 0.00 63 1016.9
20260504041613 62 161 0.0 0.0 0.00 0.00 0.00 62 1016.8
20260504041110 63 161 0.0 0.0 0.00 0.00 0.00 61 1016.7
20260504040607 63 158 0.0 0.0 0.00 0.00 0.00 61 1016.8
20260504040103 62 180 0.0 0.0 0.00 0.00 0.00 61 1016.8
20260504035600 62 170 0.0 0.0 0.00 0.00 0.00 62 1017.1
20260504035056 63 219 0.0 0.0 0.00 0.00 0.00 63 1017.2
20260504034555 63 175 0.0 0.0 0.00 0.00 0.00 61 1017.1
20260504034051 63 175 0.0 0.0 0.00 0.00 0.00 58 1017.0
20260504033549 64 175 0.0 0.0 0.00 0.00 0.00 57 1017.1
20260504033046 64 174 0.0 0.0 0.00 0.00 0.00 57 1017.1
20260504032543 64 177 0.0 0.0 0.00 0.00 0.00 57 1017.2
20260504032040 64 183 0.0 0.0 0.00 0.00 0.00 57 1017.1
20260504031537 64 203 0.0 0.0 0.00 0.00 0.00 56 1017.0
20260504031033 64 218 0.0 0.0 0.00 0.00 0.00 57 1017.0
20260504030531 65 228 0.0 0.0 0.00 0.00 0.00 56 1016.8
20260504030026 66 189 0.0 0.0 0.00 0.00 0.00 53 1016.9
20260504025524 67 177 0.0 0.0 0.00 0.00 0.00 51 1016.8
20260504025020 67 150 0.0 0.0 0.00 0.00 0.00 49 1016.9
20260504024518 67 152 0.0 0.0 0.00 0.00 0.00 49 1016.9
20260504024014 67 98 0.0 0.0 0.00 0.00 0.00 49 1016.8
20260504023511 67 142 0.0 0.0 0.00 0.00 0.00 50 1016.8
20260504023007 67 127 0.0 0.0 0.00 0.00 0.00 51 1016.9
20260504022503 67 159 0.0 0.0 0.00 0.00 0.00 50 1016.9
20260504021959 67 180 0.0 0.0 0.00 0.00 0.00 50 1016.9
20260504021457 67 166 0.0 0.0 0.00 0.00 0.00 49 1017.0
20260504020954 67 211 0.0 0.0 0.00 0.00 0.00 49 1016.8
20260504020450 67 96 0.0 0.0 0.00 0.00 0.00 50 1017.0
20260504015947 67 177 0.0 0.0 0.00 0.00 0.00 50 1016.8
20260504015443 67 165 0.0 0.0 0.00 0.00 0.00 50 1017.0
20260504014939 68 191 0.0 0.0 0.00 0.00 0.00 50 1016.7
20260504014436 68 161 0.0 0.0 0.00 0.00 0.00 49 1017.0
20260504013932 68 219 0.0 0.0 0.00 0.00 0.00 48 1017.0
20260504013431 69 197 0.0 0.0 0.00 0.00 0.00 46 1017.0
20260504012927 69 166 0.0 0.0 0.00 0.00 0.00 45 1017.0
20260504012425 69 167 0.0 0.0 0.00 0.00 0.00 45 1016.7
20260504011922 70 132 0.0 0.0 0.00 0.00 0.00 44 1016.9
20260504011419 70 216 0.0 1.0 0.00 0.00 0.00 44 1016.8
20260504010914 70 156 3.0 4.0 0.00 0.00 0.00 42 1016.8
20260504010411 71 184 0.0 0.0 0.00 0.00 0.00 42 1016.8
20260504005907 71 166 0.0 0.0 0.00 0.00 0.00 42 1016.7
20260504005404 71 134 0.0 3.0 0.00 0.00 0.00 40 1016.7
20260504004902 72 133 0.0 3.0 0.00 0.00 0.00 39 1016.8
20260504004400 72 156 0.0 4.0 0.00 0.00 0.00 38 1016.9
20260504003856 72 133 5.0 7.0 0.00 0.00 0.00 37 1016.9
20260504003352 72 187 2.0 7.0 0.00 0.00 0.00 37 1016.8
20260504002849 73 207 0.0 7.0 0.00 0.00 0.00 37 1016.7
20260504002346 73 198 0.0 7.0 0.00 0.00 0.00 36 1016.5
20260504001843 73 159 0.0 3.0 0.00 0.00 0.00 36 1016.8
20260504001341 74 167 4.0 7.0 0.00 0.00 0.00 34 1016.7
20260504000837 74 171 0.0 0.0 0.00 0.00 0.00 35 1016.7
20260504000334 74 170 4.0 7.0 0.00 0.00 0.00 32 1016.8
20260503235832 74 60 4.0 8.0 0.00 0.00 0.00 32 1016.7
20260503235329 75 142 2.0 6.0 0.00 0.00 0.00 32 1016.7
20260503234827 75 139 1.0 6.0 0.00 0.00 0.00 32 1016.8
20260503234325 75 173 0.0 6.0 0.00 0.00 0.00 32 1017.0
20260503233822 76 144 5.0 7.0 0.00 0.00 0.00 31 1017.0
20260503233318 76 171 0.0 10.0 0.00 0.00 0.00 31 1017.1
20260503232814 76 69 0.0 1.0 0.00 0.00 0.00 31 1017.0
20260503232312 76 114 5.0 10.0 0.00 0.00 0.00 29 1017.1
20260503231810 77 152 0.0 6.0 0.00 0.00 0.00 30 1017.1
20260503231306 76 157 4.0 11.0 0.00 0.00 0.00 29 1017.2
20260503230802 77 89 2.0 10.0 0.00 0.00 0.00 29 1017.4
20260503230300 77 128 0.0 4.0 0.00 0.00 0.00 28 1017.2
20260503225757 77 146 2.0 10.0 0.00 0.00 0.00 28 1017.3
20260503225252 78 187 3.0 4.0 0.00 0.00 0.00 27 1017.2
20260503224749 78 164 5.0 8.0 0.00 0.00 0.00 27 1017.1
20260503224247 77 52 0.0 3.0 0.00 0.00 0.00 29 1017.4
20260503223744 78 170 2.0 7.0 0.00 0.00 0.00 27 1017.7
20260503223242 78 282 0.0 11.0 0.00 0.00 0.00 30 1017.6
20260503222737 78 146 3.0 7.0 0.00 0.00 0.00 28 1017.8
20260503222236 78 170 0.0 6.0 0.00 0.00 0.00 28 1017.5
20260503221734 78 94 6.0 8.0 0.00 0.00 0.00 28 1017.5
20260503221232 78 140 8.0 11.0 0.00 0.00 0.00 26 1017.6
20260503220728 78 174 9.0 11.0 0.00 0.00 0.00 27 1017.3
20260503220225 77 179 1.0 4.0 0.00 0.00 0.00 29 1017.5
20260503215721 78 129 0.0 7.0 0.00 0.00 0.00 30 1017.4
20260503215219 79 172 4.0 10.0 0.00 0.00 0.00 28 1017.4
20260503214717 79 168 1.0 6.0 0.00 0.00 0.00 26 1017.8
20260503214213 79 76 1.0 7.0 0.00 0.00 0.00 26 1017.8
20260503213711 78 75 1.0 6.0 0.00 0.00 0.00 27 1017.8
20260503213208 80 170 7.0 8.0 0.00 0.00 0.00 24 1018.0
20260503212705 80 145 0.0 3.0 0.00 0.00 0.00 24 1017.9
20260503212203 80 241 1.0 3.0 0.00 0.00 0.00 26 1018.0
20260503211700 80 57 2.0 3.0 0.00 0.00 0.00 25 1018.1
20260503211155 80 319 0.0 0.0 0.00 0.00 0.00 26 1018.0
20260503210652 80 175 0.0 3.0 0.00 0.00 0.00 25 1018.2
20260503210149 80 232 1.0 4.0 0.00 0.00 0.00 24 1018.1
20260503205644 80 133 0.0 3.0 0.00 0.00 0.00 25 1018.2
20260503205141 80 138 0.0 4.0 0.00 0.00 0.00 25 1018.2
20260503204638 80 191 1.0 6.0 0.00 0.00 0.00 25 1018.3
20260503204135 80 113 4.0 8.0 0.00 0.00 0.00 25 1018.2
20260503203632 80 122 4.0 8.0 0.00 0.00 0.00 24 1018.4
20260503203129 81 157 2.0 4.0 0.00 0.00 0.00 23 1018.7
20260503202627 81 168 4.0 7.0 0.00 0.00 0.00 25 1018.6
20260503202125 80 4 0.0 8.0 0.00 0.00 0.00 26 1018.6
20260503201622 80 61 3.0 14.0 0.00 0.00 0.00 25 1018.9
20260503201120 80 46 4.0 6.0 0.00 0.00 0.00 23 1018.9
20260503200616 79 30 0.0 3.0 0.00 0.00 0.00 21 1018.8
20260503200112 79 28 4.0 6.0 0.00 0.00 0.00 21 1019.1
20260503195609 79 96 0.0 4.0 0.00 0.00 0.00 23 1019.2
20260503195105 81 67 2.0 14.0 0.00 0.00 0.00 21 1019.3
20260503194603 80 63 2.0 6.0 0.00 0.00 0.00 23 1019.2
20260503194058 80 60 5.0 10.0 0.00 0.00 0.00 21 1019.0
20260503193555 80 71 0.0 8.0 0.00 0.00 0.00 22 1019.2
20260503193050 80 11 0.0 1.0 0.00 0.00 0.00 22 1019.4
20260503192547 81 50 3.0 4.0 0.00 0.00 0.00 21 1019.5
20260503192043 80 93 0.0 3.0 0.00 0.00 0.00 22 1019.8
20260503191540 80 56 1.0 8.0 0.00 0.00 0.00 22 1019.5
20260503191036 81 90 3.0 7.0 0.00 0.00 0.00 22 1019.8
20260503190533 80 169 0.0 3.0 0.00 0.00 0.00 21 1019.7
20260503190030 80 227 2.0 7.0 0.00 0.00 0.00 22 1020.0
20260503185527 80 331 0.0 4.0 0.00 0.00 0.00 23 1020.0
20260503185027 79 56 0.0 8.0 0.00 0.00 0.00 22 1020.0
20260503184523 79 69 0.0 7.0 0.00 0.00 0.00 21 1020.3
20260503184020 79 134 1.0 4.0 0.00 0.00 0.00 20 1020.1
20260503183516 79 54 4.0 6.0 0.00 0.00 0.00 20 1020.4
20260503183013 79 274 0.0 3.0 0.00 0.00 0.00 20 1020.3
20260503182512 80 171 5.0 8.0 0.00 0.00 0.00 20 1020.4
20260503182010 79 42 0.0 3.0 0.00 0.00 0.00 23 1020.5
20260503181506 80 68 0.0 6.0 0.00 0.00 0.00 21 1020.6
20260503181002 80 120 0.0 3.0 0.00 0.00 0.00 22 1020.5
20260503180500 79 71 0.0 3.0 0.00 0.00 0.00 21 1020.5
20260503175957 79 103 2.0 4.0 0.00 0.00 0.00 24 1020.6
20260503175455 81 60 0.0 1.0 0.00 0.00 0.00 22 1020.8
20260503174951 79 185 0.0 1.0 0.00 0.00 0.00 23 1020.8
20260503174449 80 75 2.0 4.0 0.00 0.00 0.00 20 1020.9